SA7BGG-5 Weather Reports


time (UTC)temp
C
wind
direction
speed
KPH
gust
KPH
rain 1hr
cm
rain 24hr
cm
rain mn
cm
humidity
%
barometer
mb
20260502182001 21 207 0.0 0.0 0.00 0.00 0.00 40 1017.0
20260502181501 21 207 0.0 0.0 0.00 0.00 0.00 40 1017.0
20260502181000 21 207 0.0 0.0 0.00 0.00 0.00 40 1017.0
20260502180500 21 207 0.0 0.0 0.00 0.00 0.00 39 1017.0
20260502170501 23 209 0.0 0.0 0.00 0.00 0.00 36 1018.0
20260502164004 23 205 0.0 0.0 0.00 0.00 0.00 35 1018.0
20260502163504 24 208 0.0 0.0 0.00 0.00 0.00 35 1018.0
20260502163003 24 208 0.0 0.0 0.00 0.00 0.00 35 1018.0
20260502162503 24 208 0.0 0.0 0.00 0.00 0.00 35 1018.0
20260502162003 24 208 0.0 0.0 0.00 0.00 0.00 35 1018.0
20260502161502 24 212 0.0 0.0 0.00 0.00 0.00 35 1018.0
20260502161002 24 212 0.0 0.0 0.00 0.00 0.00 35 1018.0
20260502160502 25 279 0.0 0.0 0.00 0.00 0.00 34 1018.0
20260502152003 26 279 0.0 0.0 0.00 0.00 0.00 33 1019.0
20260502151503 26 278 0.0 0.0 0.00 0.00 0.00 33 1019.0
20260502151003 26 278 0.0 0.0 0.00 0.00 0.00 33 1019.0
20260502150502 26 278 0.0 0.0 0.00 0.00 0.00 33 1019.0
20260502130504 26 276 0.0 0.0 0.00 0.00 0.00 34 1020.0
20260502123502 26 260 0.0 0.0 0.00 0.00 0.00 33 1021.0
20260502123001 26 260 0.0 0.0 0.00 0.00 0.00 33 1021.0
20260502122501 26 260 0.0 0.0 0.00 0.00 0.00 34 1021.0
20260502122000 26 260 0.0 0.0 0.00 0.00 0.00 34 1021.0
20260502121500 26 260 0.0 0.0 0.00 0.00 0.00 35 1021.0
20260502121005 26 260 0.0 0.0 0.00 0.00 0.00 35 1021.0
20260502120504 25 245 0.0 0.0 0.00 0.00 0.00 34 1021.0
20260502115504 25 245 0.0 0.0 0.00 0.00 0.00 36 1021.0
20260502115003 25 245 0.0 0.0 0.00 0.00 0.00 36 1021.0
20260502114503 25 210 0.0 0.0 0.00 0.00 0.00 35 1021.0
20260502114003 25 210 0.0 0.0 0.00 0.00 0.00 35 1021.0
20260502113502 26 210 0.0 0.0 0.00 0.00 0.00 35 1022.0
20260502113002 26 210 0.0 0.0 0.00 0.00 0.00 35 1022.0
20260502112502 26 211 0.0 0.0 0.00 0.00 0.00 36 1022.0
20260502112001 26 211 0.0 0.0 0.00 0.00 0.00 36 1022.0
20260502111501 26 223 0.0 0.0 0.00 0.00 0.00 38 1022.0
20260502111001 26 223 0.0 0.0 0.00 0.00 0.00 38 1022.0
20260502110500 26 206 0.0 0.0 0.00 0.00 0.00 38 1022.0
20260502110005 26 206 0.0 0.0 0.00 0.00 0.00 38 1022.0
20260502105504 25 208 0.0 0.0 0.00 0.00 0.00 38 1022.0
20260502105004 25 208 0.0 0.0 0.00 0.00 0.00 38 1022.0
20260502104504 25 208 0.0 0.0 0.00 0.00 0.00 38 1022.0
20260502104003 25 208 0.0 0.0 0.00 0.00 0.00 38 1022.0
20260502103503 25 208 0.0 0.0 0.00 0.00 0.00 39 1022.0
20260502103003 25 208 0.0 0.0 0.00 0.00 0.00 39 1022.0
20260502102502 25 205 0.0 0.0 0.00 0.00 0.00 38 1022.0
20260502102002 25 205 0.0 0.0 0.00 0.00 0.00 38 1022.0
20260502101502 25 212 0.0 0.0 0.00 0.00 0.00 39 1022.0
20260502101001 25 212 0.0 0.0 0.00 0.00 0.00 39 1022.0
20260502100501 25 221 0.0 0.0 0.00 0.00 0.00 39 1022.0
20260502091502 23 217 0.0 0.0 0.00 0.00 0.00 41 1023.0
20260502091002 23 217 0.0 0.0 0.00 0.00 0.00 41 1023.0
20260502090502 23 217 0.0 0.0 0.00 0.00 0.00 42 1023.0
20260502071504 15 218 0.0 0.0 0.00 0.00 0.00 65 1024.0
20260502071003 15 218 0.0 0.0 0.00 0.00 0.00 65 1024.0
20260502070503 13 232 0.0 0.0 0.00 0.00 0.00 71 1024.0
20260502070003 13 232 0.0 0.0 0.00 0.00 0.00 71 1024.0
20260502065502 13 232 0.0 0.0 0.00 0.00 0.00 73 1024.0
20260502065002 13 232 0.0 0.0 0.00 0.00 0.00 73 1024.0
20260502064502 12 229 0.0 0.0 0.00 0.00 0.00 73 1024.0
20260502064002 12 229 0.0 0.0 0.00 0.00 0.00 73 1024.0
20260502063501 12 237 0.0 0.0 0.00 0.00 0.00 76 1025.0
20260502063001 12 237 0.0 0.0 0.00 0.00 0.00 76 1025.0
20260502062500 11 237 0.0 0.0 0.00 0.00 0.00 77 1025.0
20260502062005 11 237 0.0 0.0 0.00 0.00 0.00 77 1025.0
20260502061504 11 240 0.0 0.0 0.00 0.00 0.00 79 1025.0
20260502061004 11 240 0.0 0.0 0.00 0.00 0.00 79 1025.0
20260502060504 9 225 0.0 0.0 0.00 0.00 0.00 87 1025.0
20260502060004 9 225 0.0 0.0 0.00 0.00 0.00 87 1025.0
20260502055503 9 225 0.0 0.0 0.00 0.00 0.00 87 1025.0
20260502055003 9 225 0.0 0.0 0.00 0.00 0.00 87 1025.0
20260502054502 8 225 0.0 0.0 0.00 0.00 0.00 88 1025.0
20260502054002 8 225 0.0 0.0 0.00 0.00 0.00 88 1025.0
20260502053502 8 225 0.0 0.0 0.00 0.00 0.00 87 1025.0
20260502053001 8 225 0.0 0.0 0.00 0.00 0.00 87 1025.0
20260502052501 7 225 0.0 0.0 0.00 0.00 0.00 85 1025.0
20260502052001 7 225 0.0 0.0 0.00 0.00 0.00 85 1025.0
20260502051500 6 225 0.0 0.0 0.00 0.00 0.00 80 1025.0
20260502051000 6 225 0.0 0.0 0.00 0.00 0.00 80 1025.0
20260502050505 6 225 0.0 0.0 0.00 0.00 0.00 78 1025.0
20260502050005 6 225 0.0 0.0 0.00 0.00 0.00 78 1025.0
20260502045504 6 225 0.0 0.0 0.00 0.00 0.00 75 1025.0
20260502045004 6 225 0.0 0.0 0.00 0.00 0.00 75 1025.0
20260502044504 6 185 0.0 0.0 0.00 0.00 0.00 76 1025.0
20260502044003 6 185 0.0 0.0 0.00 0.00 0.00 76 1025.0
20260502043503 5 73 0.0 0.0 0.00 0.00 0.00 78 1025.0
20260502043003 5 73 0.0 0.0 0.00 0.00 0.00 78 1025.0
20260502042502 5 62 0.0 0.0 0.00 0.00 0.00 80 1025.0
20260502042002 5 62 0.0 0.0 0.00 0.00 0.00 80 1025.0
20260502041501 3 62 0.0 0.0 0.00 0.00 0.00 80 1025.0
20260502041001 3 62 0.0 0.0 0.00 0.00 0.00 80 1025.0
20260502040500 3 62 0.0 0.0 0.00 0.00 0.00 79 1025.0
20260502040000 3 62 0.0 0.0 0.00 0.00 0.00 79 1025.0
20260502035505 3 69 0.0 0.0 0.00 0.00 0.00 78 1025.0
20260502035004 3 69 0.0 0.0 0.00 0.00 0.00 78 1025.0
20260502034504 3 69 0.0 0.0 0.00 0.00 0.00 77 1026.0
20260502034004 3 69 0.0 0.0 0.00 0.00 0.00 77 1026.0
20260502033503 3 69 0.0 0.0 0.00 0.00 0.00 76 1026.0
20260502033003 3 69 0.0 0.0 0.00 0.00 0.00 76 1026.0
20260502032503 3 66 0.0 0.0 0.00 0.00 0.00 76 1026.0
20260502032002 3 66 0.0 0.0 0.00 0.00 0.00 76 1026.0
20260502031502 3 66 0.0 0.0 0.00 0.00 0.00 76 1026.0
20260502031002 3 66 0.0 0.0 0.00 0.00 0.00 76 1026.0
20260502030501 3 66 0.0 0.0 0.00 0.00 0.00 75 1026.0
20260502030001 3 66 0.0 0.0 0.00 0.00 0.00 75 1026.0
20260502025501 3 66 0.0 0.0 0.00 0.00 0.00 75 1026.0
20260502025000 3 66 0.0 0.0 0.00 0.00 0.00 75 1026.0
20260502024005 4 66 0.0 0.0 0.00 0.00 0.00 75 1026.0
20260502023504 4 66 0.0 0.0 0.00 0.00 0.00 75 1026.0
20260502023004 4 66 0.0 0.0 0.00 0.00 0.00 75 1026.0
20260502022504 4 66 0.0 0.0 0.00 0.00 0.00 74 1026.0
20260502022004 4 66 0.0 0.0 0.00 0.00 0.00 74 1026.0
20260502021503 4 234 0.0 0.0 0.00 0.00 0.00 74 1026.0
20260502021003 4 234 0.0 0.0 0.00 0.00 0.00 74 1026.0
20260502020503 5 234 0.0 0.0 0.00 0.00 0.00 73 1026.0
20260502020002 5 234 0.0 0.0 0.00 0.00 0.00 73 1026.0
20260502015502 5 234 0.0 0.0 0.00 0.00 0.00 72 1026.0
20260502015002 5 234 0.0 0.0 0.00 0.00 0.00 72 1026.0
20260502014501 5 234 0.0 0.0 0.00 0.00 0.00 71 1026.0
20260502014001 5 234 0.0 0.0 0.00 0.00 0.00 71 1026.0
20260502013501 5 234 0.0 0.0 0.00 0.00 0.00 71 1027.0
20260502013000 5 234 0.0 0.0 0.00 0.00 0.00 71 1027.0
20260502012500 5 234 0.0 0.0 0.00 0.00 0.00 70 1027.0
20260502012005 5 234 0.0 0.0 0.00 0.00 0.00 70 1027.0
20260502011504 5 234 0.0 0.0 0.00 0.00 0.00 70 1027.0
20260502011004 5 234 0.0 0.0 0.00 0.00 0.00 70 1027.0
20260502010504 5 239 0.0 0.0 0.00 0.00 0.00 69 1027.0
20260502010003 5 239 0.0 0.0 0.00 0.00 0.00 69 1027.0
20260502005503 6 239 0.0 0.0 0.00 0.00 0.00 69 1027.0
20260502005003 6 239 0.0 0.0 0.00 0.00 0.00 69 1027.0
20260502004502 6 239 0.0 0.0 0.00 0.00 0.00 68 1027.0
20260502004003 6 239 0.0 0.0 0.00 0.00 0.00 68 1027.0
20260502003502 6 239 0.0 0.0 0.00 0.00 0.00 68 1027.0
20260502003001 6 239 0.0 0.0 0.00 0.00 0.00 68 1027.0
20260502002501 6 239 0.0 0.0 0.00 0.00 0.00 67 1027.0
20260502002001 6 239 0.0 0.0 0.00 0.00 0.00 67 1027.0
20260502001501 6 239 0.0 0.0 0.00 0.00 0.00 66 1027.0
20260502001000 6 239 0.0 0.0 0.00 0.00 0.00 66 1027.0
20260502000500 7 239 0.0 0.0 0.00 0.00 0.00 65 1027.0
20260502000005 7 239 0.0 0.0 0.00 0.00 0.00 65 1027.0
20260501235504 7 242 0.0 0.0 0.00 0.00 0.00 65 1027.0
20260501235004 7 242 0.0 0.0 0.00 0.00 0.00 65 1027.0
20260501234504 7 242 0.0 0.0 0.00 0.00 0.00 65 1027.0
20260501234004 7 242 0.0 0.0 0.00 0.00 0.00 65 1027.0
20260501233503 7 245 0.0 0.0 0.00 0.00 0.00 64 1027.0
20260501233003 7 245 0.0 0.0 0.00 0.00 0.00 64 1027.0
20260501232503 7 245 0.0 0.0 0.00 0.00 0.00 63 1027.0
20260501232002 7 245 0.0 0.0 0.00 0.00 0.00 63 1027.0
20260501231502 7 246 0.0 0.0 0.00 0.00 0.00 63 1028.0
20260501231002 7 246 0.0 0.0 0.00 0.00 0.00 63 1028.0
20260501230502 8 246 0.0 0.0 0.00 0.00 0.00 61 1028.0
20260501230001 8 246 0.0 0.0 0.00 0.00 0.00 61 1028.0
20260501225501 8 246 0.0 0.0 0.00 0.00 0.00 61 1028.0
20260501225001 8 246 0.0 0.0 0.00 0.00 0.00 61 1028.0
20260501224500 8 251 0.0 0.0 0.00 0.00 0.00 60 1028.0
20260501224000 8 251 0.0 0.0 0.00 0.00 0.00 60 1028.0
20260501223505 9 251 0.0 0.0 0.00 0.00 0.00 58 1028.0
20260501223005 9 251 0.0 0.0 0.00 0.00 0.00 58 1028.0
20260501222505 9 251 0.0 0.0 0.00 0.00 0.00 58 1028.0
20260501222004 9 251 0.0 0.0 0.00 0.00 0.00 58 1028.0
20260501221504 10 251 0.0 0.0 0.00 0.00 0.00 57 1028.0
20260501221004 10 251 0.0 0.0 0.00 0.00 0.00 57 1028.0
20260501220503 10 251 0.0 0.0 0.00 0.00 0.00 56 1028.0
20260501220003 10 251 0.0 0.0 0.00 0.00 0.00 56 1028.0
20260501215503 10 251 0.0 0.0 0.00 0.00 0.00 55 1028.0
20260501215002 10 251 0.0 0.0 0.00 0.00 0.00 55 1028.0
20260501214502 10 252 0.0 0.0 0.00 0.00 0.00 54 1028.0
20260501214002 10 252 0.0 0.0 0.00 0.00 0.00 54 1028.0
20260501213501 11 252 0.0 0.0 0.00 0.00 0.00 54 1028.0
20260501213001 11 252 0.0 0.0 0.00 0.00 0.00 54 1028.0
20260501212500 11 252 0.0 0.0 0.00 0.00 0.00 53 1028.0
20260501212000 11 252 0.0 0.0 0.00 0.00 0.00 53 1028.0
20260501211505 11 252 0.0 0.0 0.00 0.00 0.00 52 1028.0
20260501211004 11 252 0.0 0.0 0.00 0.00 0.00 52 1028.0
20260501210504 11 252 0.0 0.0 0.00 0.00 0.00 52 1028.0
20260501210004 11 252 0.0 0.0 0.00 0.00 0.00 52 1028.0
20260501205503 11 252 0.0 0.0 0.00 0.00 0.00 51 1028.0
20260501205003 11 252 0.0 0.0 0.00 0.00 0.00 51 1028.0
20260501204503 12 252 0.0 0.0 0.00 0.00 0.00 49 1028.0
20260501204003 12 252 0.0 0.0 0.00 0.00 0.00 49 1028.0
20260501203502 12 252 0.0 0.0 0.00 0.00 0.00 48 1028.0
20260501203002 12 252 0.0 0.0 0.00 0.00 0.00 48 1028.0
20260501202501 12 252 0.0 0.0 0.00 0.00 0.00 48 1028.0
20260501202001 12 252 0.0 0.0 0.00 0.00 0.00 48 1028.0
20260501201501 13 252 0.0 0.0 0.00 0.00 0.00 47 1028.0
20260501201000 13 252 0.0 0.0 0.00 0.00 0.00 47 1028.0
20260501200500 13 236 0.0 0.0 0.00 0.00 0.00 45 1028.0
20260501200005 13 236 0.0 0.0 0.00 0.00 0.00 45 1028.0
20260501195505 14 236 0.0 0.0 0.00 0.00 0.00 44 1029.0
20260501195004 14 236 0.0 0.0 0.00 0.00 0.00 44 1029.0
20260501194504 14 236 0.0 0.0 0.00 0.00 0.00 43 1029.0
20260501194004 14 236 0.0 0.0 0.00 0.00 0.00 43 1029.0
20260501193503 15 219 0.0 0.0 0.00 0.00 0.00 42 1029.0
20260501193003 15 219 0.0 0.0 0.00 0.00 0.00 42 1029.0
20260501192503 15 219 0.0 0.0 0.00 0.00 0.00 41 1029.0
20260501192003 15 219 0.0 0.0 0.00 0.00 0.00 41 1029.0
20260501191502 16 219 0.0 0.0 0.00 0.00 0.00 41 1029.0
20260501191002 16 219 0.0 0.0 0.00 0.00 0.00 41 1029.0
20260501190502 16 213 0.0 0.0 0.00 0.00 0.00 40 1029.0
20260501190002 16 213 0.0 0.0 0.00 0.00 0.00 40 1029.0
20260501185501 17 213 0.0 0.0 0.00 0.00 0.00 39 1029.0
20260501185001 17 213 0.0 0.0 0.00 0.00 0.00 39 1029.0
20260501184501 17 213 0.0 0.0 0.00 0.00 0.00 38 1029.0
20260501184001 17 213 0.0 0.0 0.00 0.00 0.00 38 1029.0
20260501183500 18 213 0.0 0.0 0.00 0.00 0.00 37 1029.0
20260501183000 18 213 0.0 0.0 0.00 0.00 0.00 37 1029.0
20260501182505 18 165 0.0 0.0 0.00 0.00 0.00 36 1028.0